Time,TemperatureF,DewpointF,PressureIn,WindDirection,WindDirectionDegrees,WindSpeedMPH,WindSpeedGustMPH,Humidity,HourlyPrecipIn,Conditions,Clouds,dailyrainin,SoftwareType,DateUTC
2013-09-02 00:04:00,58.4,-99.9,29.83,ESE,105,2.0,6.0,1,0.00,,,0.00,WeatherCatV1.21B27,2013-09-02 07:04:00,
2013-09-02 00:09:00,58.4,-99.9,29.83,WSW,256,2.0,4.0,1,0.00,,,0.00,WeatherCatV1.21B27,2013-09-02 07:09:00,
2013-09-02 00:19:00,58.4,-99.9,29.83,South,185,0.0,6.0,1,0.00,,,0.00,WeatherCatV1.21B27,2013-09-02 07:19:00,
2013-09-02 00:24:00,58.4,-99.9,29.83,ESE,121,0.0,4.0,1,0.00,,,0.00,WeatherCatV1.21B27,2013-09-02 07:24:00,
2013-09-02 00:29:00,58.3,-99.9,29.83,SE,132,1.0,7.0,1,0.00,,,0.00,WeatherCatV1.21B27,2013-09-02 07:29:00,
2013-09-02 00:34:00,58.3,-99.9,29.83,NE,53,1.0,7.0,1,0.00,,,0.00,WeatherCatV1.21B27,2013-09-02 07:34:00,
2013-09-02 00:39:00,58.2,-99.9,29.83,ESE,117,0.0,5.0,1,0.00,,,0.00,WeatherCatV1.21B27,2013-09-02 07:39:00,
2013-09-02 00:44:00,58.1,-99.9,29.83,ESE,105,0.0,2.0,1,0.00,,,0.00,WeatherCatV1.21B27,2013-09-02 07:44:00,
2013-09-02 00:49:00,58.0,-99.9,29.83,SSE,148,0.0,4.0,1,0.00,,,0.00,WeatherCatV1.21B27,2013-09-02 07:49:00,
2013-09-02 00:54:00,57.9,-99.9,29.83,SE,144,1.0,4.0,1,0.00,,,0.00,WeatherCatV1.21B27,2013-09-02 07:54:00,
2013-09-02 00:59:00,57.8,-99.9,29.83,NE,54,4.0,8.0,1,0.00,,,0.00,WeatherCatV1.21B27,2013-09-02 07:59:00,
2013-09-02 01:04:00,57.7,-99.9,29.83,South,188,1.0,9.0,1,0.00,,,0.00,WeatherCatV1.21B27,2013-09-02 08:04:00,
2013-09-02 01:09:00,57.6,-99.9,29.83,South,173,1.0,4.0,1,0.00,,,0.00,WeatherCatV1.21B27,2013-09-02 08:09:00,
2013-09-02 01:14:00,57.6,-99.9,29.83,SE,140,0.0,1.0,1,0.00,,,0.00,WeatherCatV1.21B27,2013-09-02 08:14:00,
2013-09-02 01:19:00,57.6,-99.9,29.83,ENE,73,3.0,5.0,1,0.00,,,0.00,WeatherCatV1.21B27,2013-09-02 08:19:00,
2013-09-02 01:24:00,57.6,-99.9,29.83,South,188,0.0,2.0,1,0.00,,,0.00,WeatherCatV1.21B27,2013-09-02 08:24:00,
2013-09-02 01:29:00,57.6,-99.9,29.83,West,276,1.0,3.0,1,0.00,,,0.00,WeatherCatV1.21B27,2013-09-02 08:29:00,
2013-09-02 01:34:00,57.5,-99.9,29.83,ESE,110,3.0,9.0,1,0.00,,,0.00,WeatherCatV1.21B27,2013-09-02 08:34:00,
2013-09-02 01:39:00,57.5,-99.9,29.83,NE,45,4.0,4.0,1,0.00,,,0.00,WeatherCatV1.21B27,2013-09-02 08:39:00,
2013-09-02 01:44:00,57.4,-99.9,29.83,WSW,257,6.0,6.0,1,0.00,,,0.00,WeatherCatV1.21B27,2013-09-02 08:44:00,
2013-09-02 01:49:00,57.4,-99.9,29.83,SSW,199,1.0,6.0,1,0.00,,,0.00,WeatherCatV1.21B27,2013-09-02 08:49:00,
2013-09-02 01:54:00,57.4,-99.9,29.83,WSW,238,2.0,6.0,1,0.00,,,0.00,WeatherCatV1.21B27,2013-09-02 08:54:00,
2013-09-02 01:59:00,57.4,-99.9,29.83,SE,132,1.0,4.0,1,0.00,,,0.00,WeatherCatV1.21B27,2013-09-02 08:59:00,
2013-09-02 02:04:00,57.5,-99.9,29.83,SW,225,3.0,5.0,1,0.00,,,0.00,WeatherCatV1.21B27,2013-09-02 09:04:00,
2013-09-02 02:09:00,57.4,-99.9,29.83,SE,132,0.0,1.0,1,0.00,,,0.00,WeatherCatV1.21B27,2013-09-02 09:09:00,
2013-09-02 02:14:00,57.5,-99.9,29.83,ENE,72,4.0,5.0,1,0.00,,,0.00,WeatherCatV1.21B27,2013-09-02 09:14:00,
2013-09-02 02:19:00,57.6,-99.9,29.83,ESE,107,2.0,3.0,1,0.00,,,0.00,WeatherCatV1.21B27,2013-09-02 09:19:00,
2013-09-02 02:24:00,57.8,-99.9,29.83,ESE,113,1.0,9.0,1,0.00,,,0.00,WeatherCatV1.21B27,2013-09-02 09:24:00,
2013-09-02 02:29:00,57.8,-99.9,29.82,South,182,2.0,4.0,1,0.00,,,0.00,WeatherCatV1.21B27,2013-09-02 09:29:00,
2013-09-02 02:34:00,57.7,-99.9,29.82,WSW,244,2.0,3.0,1,0.00,,,0.00,WeatherCatV1.21B27,2013-09-02 09:34:00,
2013-09-02 02:39:00,57.7,-99.9,29.82,SSE,161,2.0,3.0,1,0.00,,,0.00,WeatherCatV1.21B27,2013-09-02 09:39:00,
2013-09-02 02:44:00,57.7,-99.9,29.82,SE,133,0.0,3.0,1,0.00,,,0.00,WeatherCatV1.21B27,2013-09-02 09:44:00,
2013-09-02 02:49:00,57.7,-99.9,29.82,West,280,2.0,5.0,1,0.00,,,0.00,WeatherCatV1.21B27,2013-09-02 09:49:00,
2013-09-02 02:54:00,57.7,-99.9,29.82,WSW,251,4.0,4.0,1,0.00,,,0.00,WeatherCatV1.21B27,2013-09-02 09:54:00,
2013-09-02 02:59:00,57.8,-99.9,29.82,ESE,103,4.0,4.0,1,0.00,,,0.00,WeatherCatV1.21B27,2013-09-02 09:59:00,
2013-09-02 03:04:00,57.9,-99.9,29.82,East,89,4.0,6.0,1,0.00,,,0.00,WeatherCatV1.21B27,2013-09-02 10:04:00,
2013-09-02 03:09:00,57.9,-99.9,29.82,SSE,165,1.0,3.0,1,0.00,,,0.00,WeatherCatV1.21B27,2013-09-02 10:09:00,
2013-09-02 03:14:00,57.9,-99.9,29.82,SE,135,0.0,6.0,1,0.00,,,0.00,WeatherCatV1.21B27,2013-09-02 10:14:00,
2013-09-02 03:19:00,57.9,-99.9,29.82,ESE,105,1.0,5.0,1,0.00,,,0.00,WeatherCatV1.21B27,2013-09-02 10:19:00,
2013-09-02 03:24:00,58.0,-99.9,29.82,SE,127,2.0,9.0,1,0.00,,,0.00,WeatherCatV1.21B27,2013-09-02 10:24:00,
2013-09-02 03:29:00,58.0,-99.9,29.82,WSW,249,4.0,4.0,1,0.00,,,0.00,WeatherCatV1.21B27,2013-09-02 10:29:00,
2013-09-02 03:34:00,58.0,-99.9,29.82,West,269,1.0,4.0,1,0.00,,,0.00,WeatherCatV1.21B27,2013-09-02 10:34:00,
2013-09-02 03:39:00,58.0,-99.9,29.82,SW,227,2.0,4.0,1,0.00,,,0.00,WeatherCatV1.21B27,2013-09-02 10:39:00,
2013-09-02 03:44:00,58.0,-99.9,29.82,SW,233,4.0,6.0,1,0.00,,,0.00,WeatherCatV1.21B27,2013-09-02 10:44:00,
2013-09-02 03:49:00,58.0,-99.9,29.82,ESE,123,1.0,4.0,1,0.00,,,0.00,WeatherCatV1.21B27,2013-09-02 10:49:00,
2013-09-02 03:54:00,58.0,-99.9,29.82,East,84,1.0,4.0,1,0.00,,,0.00,WeatherCatV1.21B27,2013-09-02 10:54:00,
2013-09-02 03:59:00,58.0,-99.9,29.82,SSE,157,1.0,4.0,1,0.00,,,0.00,WeatherCatV1.21B27,2013-09-02 10:59:00,
2013-09-02 04:04:00,58.0,-99.9,29.82,South,184,1.0,4.0,1,0.00,,,0.00,WeatherCatV1.21B27,2013-09-02 11:04:00,
2013-09-02 04:09:00,58.0,-99.9,29.82,ESE,113,2.0,3.0,1,0.00,,,0.00,WeatherCatV1.21B27,2013-09-02 11:09:00,
2013-09-02 04:14:00,58.0,-99.9,29.82,ESE,118,0.0,2.0,1,0.00,,,0.00,WeatherCatV1.21B27,2013-09-02 11:14:00,
2013-09-02 04:19:00,58.0,-99.9,29.82,South,186,0.0,2.0,1,0.00,,,0.00,WeatherCatV1.21B27,2013-09-02 11:19:00,
2013-09-02 04:24:00,58.0,-99.9,29.82,SE,134,0.0,1.0,1,0.00,,,0.00,WeatherCatV1.21B27,2013-09-02 11:24:00,
2013-09-02 04:29:00,58.0,-99.9,29.82,ESE,116,0.0,2.0,1,0.00,,,0.00,WeatherCatV1.21B27,2013-09-02 11:29:00,
2013-09-02 04:34:00,58.0,-99.9,29.82,SSW,198,1.0,1.0,1,0.00,,,0.00,WeatherCatV1.21B27,2013-09-02 11:34:00,
2013-09-02 04:39:00,58.0,-99.9,29.82,ESE,116,0.0,1.0,1,0.00,,,0.00,WeatherCatV1.21B27,2013-09-02 11:39:00,
2013-09-02 04:44:00,58.0,-99.9,29.82,South,171,0.0,3.0,1,0.00,,,0.00,WeatherCatV1.21B27,2013-09-02 11:44:00,
2013-09-02 04:49:00,57.9,-99.9,29.82,WSW,241,3.0,3.0,1,0.00,,,0.00,WeatherCatV1.21B27,2013-09-02 11:49:00,
2013-09-02 04:54:00,57.9,-99.9,29.82,ESE,111,0.0,2.0,1,0.00,,,0.00,WeatherCatV1.21B27,2013-09-02 11:54:00,
2013-09-02 04:59:00,57.9,-99.9,29.82,East,101,2.0,5.0,1,0.00,,,0.00,WeatherCatV1.21B27,2013-09-02 11:59:00,
2013-09-02 05:04:00,57.9,-99.9,29.82,SSE,161,4.0,7.0,1,0.00,,,0.00,WeatherCatV1.21B27,2013-09-02 12:04:00,
2013-09-02 05:09:00,57.9,-99.9,29.83,SE,133,1.0,4.0,1,0.00,,,0.00,WeatherCatV1.21B27,2013-09-02 12:09:00,
2013-09-02 05:14:00,57.9,-99.9,29.83,East,94,2.0,4.0,1,0.00,,,0.00,WeatherCatV1.21B27,2013-09-02 12:14:00,
2013-09-02 05:19:00,57.8,-99.9,29.83,ESE,108,1.0,5.0,1,0.00,,,0.00,WeatherCatV1.21B27,2013-09-02 12:19:00,
2013-09-02 05:24:00,57.8,-99.9,29.83,ENE,73,2.0,3.0,1,0.00,,,0.00,WeatherCatV1.21B27,2013-09-02 12:24:00,
2013-09-02 05:29:00,57.8,-99.9,29.83,SSE,167,1.0,3.0,1,0.00,,,0.00,WeatherCatV1.21B27,2013-09-02 12:29:00,
2013-09-02 05:34:00,57.8,-99.9,29.83,SE,128,0.0,3.0,1,0.00,,,0.00,WeatherCatV1.21B27,2013-09-02 12:34:00,
2013-09-02 05:39:00,57.8,-99.9,29.83,SE,128,1.0,6.0,1,0.00,,,0.00,WeatherCatV1.21B27,2013-09-02 12:39:00,
2013-09-02 05:44:00,57.7,-99.9,29.83,ESE,112,2.0,14.0,1,0.00,,,0.00,WeatherCatV1.21B27,2013-09-02 12:44:00,
2013-09-02 05:49:00,57.7,-99.9,29.83,East,94,4.0,5.0,1,0.00,,,0.00,WeatherCatV1.21B27,2013-09-02 12:49:00,
2013-09-02 05:54:00,57.7,-99.9,29.83,SE,141,1.0,5.0,1,0.00,,,0.00,WeatherCatV1.21B27,2013-09-02 12:54:00,
2013-09-02 05:59:00,57.7,-99.9,29.83,SE,136,4.0,8.0,1,0.00,,,0.00,WeatherCatV1.21B27,2013-09-02 12:59:00,
2013-09-02 06:04:00,57.6,-99.9,29.83,ENE,78,3.0,4.0,1,0.00,,,0.00,WeatherCatV1.21B27,2013-09-02 13:04:00,
2013-09-02 06:09:00,57.6,-99.9,29.83,SSE,167,0.0,3.0,1,0.00,,,0.00,WeatherCatV1.21B27,2013-09-02 13:09:00,
2013-09-02 06:14:00,57.6,-99.9,29.83,NE,39,1.0,5.0,1,0.00,,,0.00,WeatherCatV1.21B27,2013-09-02 13:14:00,
2013-09-02 06:19:00,57.6,-99.9,29.84,SE,140,1.0,3.0,1,0.00,,,0.00,WeatherCatV1.21B27,2013-09-02 13:19:00,
2013-09-02 06:24:00,57.6,-99.9,29.84,SSE,163,0.0,3.0,1,0.00,,,0.00,WeatherCatV1.21B27,2013-09-02 13:24:00,
2013-09-02 06:29:00,57.5,-99.9,29.84,East,84,4.0,4.0,1,0.00,,,0.00,WeatherCatV1.21B27,2013-09-02 13:29:00,
2013-09-02 06:34:00,57.4,-99.9,29.84,West,267,3.0,4.0,1,0.00,,,0.00,WeatherCatV1.21B27,2013-09-02 13:34:00,
2013-09-02 06:39:00,57.4,-99.9,29.84,ESE,117,1.0,4.0,1,0.00,,,0.00,WeatherCatV1.21B27,2013-09-02 13:39:00,
2013-09-02 06:44:00,57.4,-99.9,29.84,SSE,163,2.0,9.0,1,0.00,,,0.00,WeatherCatV1.21B27,2013-09-02 13:44:00,
2013-09-02 06:49:00,57.3,-99.9,29.84,ESE,116,3.0,5.0,1,0.00,,,0.00,WeatherCatV1.21B27,2013-09-02 13:49:00,
2013-09-02 06:54:00,57.3,-99.9,29.84,SSE,147,1.0,4.0,1,0.00,,,0.00,WeatherCatV1.21B27,2013-09-02 13:54:00,
2013-09-02 06:59:00,57.2,-99.9,29.84,SSW,194,1.0,4.0,1,0.00,,,0.00,WeatherCatV1.21B27,2013-09-02 13:59:00,
2013-09-02 07:04:00,57.2,-99.9,29.85,ESE,117,0.0,6.0,1,0.00,,,0.00,WeatherCatV1.21B27,2013-09-02 14:04:00,
2013-09-02 07:09:00,57.3,-99.9,29.85,SE,130,0.0,0.0,1,0.00,,,0.00,WeatherCatV1.21B27,2013-09-02 14:09:00,
2013-09-02 07:14:00,57.3,-99.9,29.86,South,183,1.0,4.0,1,0.00,,,0.00,WeatherCatV1.21B27,2013-09-02 14:14:00,
2013-09-02 07:19:00,57.2,-99.9,29.86,SE,124,0.0,2.0,1,0.00,,,0.00,WeatherCatV1.21B27,2013-09-02 14:19:00,
2013-09-02 07:24:00,57.2,-99.9,29.86,South,177,0.0,4.0,1,0.00,,,0.00,WeatherCatV1.21B27,2013-09-02 14:24:00,
2013-09-02 07:29:00,57.3,-99.9,29.86,South,187,0.0,0.0,1,0.00,,,0.00,WeatherCatV1.21B27,2013-09-02 14:29:00,
2013-09-02 07:34:00,57.3,-99.9,29.86,SE,139,0.0,6.0,1,0.00,,,0.00,WeatherCatV1.21B27,2013-09-02 14:34:00,
2013-09-02 07:39:00,57.5,-99.9,29.86,SSE,159,0.0,2.0,1,0.00,,,0.00,WeatherCatV1.21B27,2013-09-02 14:39:00,
2013-09-02 07:44:00,57.5,-99.9,29.86,SE,140,0.0,0.0,1,0.00,,,0.00,WeatherCatV1.21B27,2013-09-02 14:44:00,
2013-09-02 07:49:00,57.5,-99.9,29.86,SSE,157,0.0,0.0,1,0.00,,,0.00,WeatherCatV1.21B27,2013-09-02 14:49:00,
2013-09-02 07:54:00,57.5,-99.9,29.86,SSE,168,0.0,0.0,1,0.00,,,0.00,WeatherCatV1.21B27,2013-09-02 14:54:00,
2013-09-02 07:59:00,57.4,-99.9,29.86,SSE,165,0.0,0.0,1,0.00,,,0.00,WeatherCatV1.21B27,2013-09-02 14:59:00,
2013-09-02 08:04:00,57.5,-99.9,29.86,South,186,0.0,0.0,1,0.00,,,0.00,WeatherCatV1.21B27,2013-09-02 15:04:00,
2013-09-02 08:09:00,57.4,-99.9,29.86,SSW,205,0.0,0.0,1,0.00,,,0.00,WeatherCatV1.21B27,2013-09-02 15:09:00,
2013-09-02 08:14:00,57.5,-99.9,29.86,South,180,0.0,0.0,1,0.00,,,0.00,WeatherCatV1.21B27,2013-09-02 15:14:00,
2013-09-02 08:19:00,57.6,-99.9,29.87,South,179,0.0,0.0,1,0.00,,,0.00,WeatherCatV1.21B27,2013-09-02 15:19:00,
2013-09-02 08:24:00,57.8,-99.9,29.87,SSE,163,0.0,0.0,1,0.00,,,0.00,WeatherCatV1.21B27,2013-09-02 15:24:00,
2013-09-02 08:29:00,57.8,-99.9,29.87,SE,141,0.0,0.0,1,0.00,,,0.00,WeatherCatV1.21B27,2013-09-02 15:29:00,
2013-09-02 08:34:00,57.9,-99.9,29.87,South,179,0.0,0.0,1,0.00,,,0.00,WeatherCatV1.21B27,2013-09-02 15:34:00,
2013-09-02 08:39:00,57.9,-99.9,29.87,South,178,1.0,5.0,1,0.00,,,0.00,WeatherCatV1.21B27,2013-09-02 15:39:00,
2013-09-02 08:44:00,58.0,-99.9,29.87,SSE,167,0.0,0.0,1,0.00,,,0.00,WeatherCatV1.21B27,2013-09-02 15:44:00,
2013-09-02 08:49:00,58.3,-99.9,29.87,SE,143,0.0,0.0,1,0.00,,,0.00,WeatherCatV1.21B27,2013-09-02 15:49:00,
2013-09-02 08:54:00,59.1,-99.9,29.87,SSE,153,0.0,0.0,1,0.00,,,0.00,WeatherCatV1.21B27,2013-09-02 15:54:00,
2013-09-02 08:59:00,59.3,-99.9,29.88,South,186,0.0,3.0,1,0.00,,,0.00,WeatherCatV1.21B27,2013-09-02 15:59:00,
2013-09-02 09:04:00,59.4,-99.9,29.88,SE,142,0.0,3.0,1,0.00,,,0.00,WeatherCatV1.21B27,2013-09-02 16:04:00,
2013-09-02 09:09:00,60.0,-99.9,29.88,SE,140,0.0,3.0,1,0.00,,,0.00,WeatherCatV1.21B27,2013-09-02 16:09:00,
2013-09-02 09:14:00,60.6,-99.9,29.88,South,188,0.0,0.0,1,0.00,,,0.00,WeatherCatV1.21B27,2013-09-02 16:14:00,
2013-09-02 09:19:00,60.7,-99.9,29.88,SSE,165,0.0,2.0,1,0.00,,,0.00,WeatherCatV1.21B27,2013-09-02 16:19:00,
2013-09-02 09:24:00,60.8,-99.9,29.87,SE,134,0.0,3.0,1,0.00,,,0.00,WeatherCatV1.21B27,2013-09-02 16:24:00,
2013-09-02 09:29:00,61.3,-99.9,29.87,South,171,0.0,4.0,1,0.00,,,0.00,WeatherCatV1.21B27,2013-09-02 16:29:00,
2013-09-02 09:34:00,61.8,-99.9,29.88,South,184,0.0,1.0,1,0.00,,,0.00,WeatherCatV1.21B27,2013-09-02 16:34:00,
2013-09-02 09:39:00,62.2,-99.9,29.88,SSW,206,0.0,1.0,1,0.00,,,0.00,WeatherCatV1.21B27,2013-09-02 16:39:00,
2013-09-02 09:44:00,62.5,-99.9,29.88,ESE,103,2.0,3.0,1,0.00,,,0.00,WeatherCatV1.21B27,2013-09-02 16:44:00,
2013-09-02 09:49:00,63.3,-99.9,29.88,South,178,0.0,4.0,1,0.00,,,0.00,WeatherCatV1.21B27,2013-09-02 16:49:00,
2013-09-02 09:54:00,64.8,-3.9,29.88,NE,51,4.0,6.0,6,0.00,,,0.00,WeatherCatV1.21B27,2013-09-02 16:54:00,
2013-09-02 09:59:00,66.6,31.6,29.88,ESE,107,2.0,4.0,27,0.00,,,0.00,WeatherCatV1.21B27,2013-09-02 16:59:00,
2013-09-02 10:04:00,66.8,48.1,29.87,SSE,161,2.0,4.0,51,0.00,,,0.00,WeatherCatV1.21B27,2013-09-02 17:04:00,
2013-09-02 10:09:00,67.3,53.4,29.87,South,173,0.0,2.0,61,0.00,,,0.00,WeatherCatV1.21B27,2013-09-02 17:09:00,
2013-09-02 10:14:00,68.0,59.4,29.86,ESE,103,3.0,3.0,74,0.00,,,0.00,WeatherCatV1.21B27,2013-09-02 17:14:00,
2013-09-02 10:19:00,67.9,60.4,29.86,SE,134,2.0,4.0,77,0.00,,,0.00,WeatherCatV1.21B27,2013-09-02 17:19:00,
2013-09-02 10:24:00,68.3,61.2,29.86,SSE,159,2.0,4.0,78,0.00,,,0.00,WeatherCatV1.21B27,2013-09-02 17:24:00,
2013-09-02 10:29:00,69.1,62.3,29.86,SE,124,1.0,4.0,79,0.00,,,0.00,WeatherCatV1.21B27,2013-09-02 17:29:00,
2013-09-02 10:34:00,69.9,63.1,29.86,ESE,115,0.0,2.0,79,0.00,,,0.00,WeatherCatV1.21B27,2013-09-02 17:34:00,
2013-09-02 10:39:00,70.5,63.7,29.86,South,187,0.0,2.0,79,0.00,,,0.00,WeatherCatV1.21B27,2013-09-02 17:39:00,
2013-09-02 10:44:00,71.9,64.3,29.86,NW,313,1.0,3.0,77,0.00,,,0.00,WeatherCatV1.21B27,2013-09-02 17:44:00,
2013-09-02 10:49:00,71.2,63.6,29.86,NE,38,3.0,9.0,77,0.00,,,0.00,WeatherCatV1.21B27,2013-09-02 17:49:00,
2013-09-02 10:54:00,71.1,63.9,29.86,ENE,68,5.0,6.0,78,0.00,,,0.00,WeatherCatV1.21B27,2013-09-02 17:54:00,
2013-09-02 10:59:00,70.9,63.7,29.86,NE,49,5.0,6.0,78,0.00,,,0.00,WeatherCatV1.21B27,2013-09-02 17:59:00,
2013-09-02 11:04:00,71.9,64.7,29.85,NNE,27,5.0,6.0,78,0.00,,,0.00,WeatherCatV1.21B27,2013-09-02 18:04:00,
2013-09-02 11:09:00,71.4,63.4,29.85,SE,136,1.0,6.0,76,0.00,,,0.00,WeatherCatV1.21B27,2013-09-02 18:09:00,
2013-09-02 11:14:00,71.8,64.2,29.85,SSW,194,1.0,4.0,77,0.00,,,0.00,WeatherCatV1.21B27,2013-09-02 18:14:00,
2013-09-02 11:19:00,72.8,64.0,29.85,ESE,108,1.0,3.0,74,0.00,,,0.00,WeatherCatV1.21B27,2013-09-02 18:19:00,
2013-09-02 11:24:00,73.5,64.3,29.85,ENE,69,3.0,5.0,73,0.00,,,0.00,WeatherCatV1.21B27,2013-09-02 18:24:00,
2013-09-02 11:29:00,74.5,64.1,29.85,ENE,64,2.0,5.0,70,0.00,,,0.00,WeatherCatV1.21B27,2013-09-02 18:29:00,
2013-09-02 11:34:00,74.7,64.2,29.85,NNE,30,4.0,5.0,70,0.00,,,0.00,WeatherCatV1.21B27,2013-09-02 18:34:00,
2013-09-02 11:39:00,74.2,64.2,29.86,NNE,27,4.0,6.0,71,0.00,,,0.00,WeatherCatV1.21B27,2013-09-02 18:39:00,
2013-09-02 11:44:00,74.4,64.0,29.85,ESE,108,2.0,6.0,70,0.00,,,0.00,WeatherCatV1.21B27,2013-09-02 18:44:00,
2013-09-02 11:49:00,74.2,64.2,29.85,SE,134,2.0,11.0,71,0.00,,,0.00,WeatherCatV1.21B27,2013-09-02 18:49:00,
2013-09-02 11:54:00,75.0,64.1,29.85,NE,56,3.0,7.0,69,0.00,,,0.00,WeatherCatV1.21B27,2013-09-02 18:54:00,
2013-09-02 11:59:00,74.6,64.2,29.85,ESE,113,1.0,5.0,70,0.00,,,0.00,WeatherCatV1.21B27,2013-09-02 18:59:00,
2013-09-02 12:04:00,74.8,64.3,29.85,NE,52,9.0,11.0,70,0.00,,,0.00,WeatherCatV1.21B27,2013-09-02 19:04:00,
2013-09-02 12:09:00,74.8,64.3,29.85,East,92,2.0,9.0,70,0.00,,,0.00,WeatherCatV1.21B27,2013-09-02 19:09:00,
2013-09-02 12:14:00,75.0,63.7,29.85,ESE,109,2.0,3.0,68,0.00,,,0.00,WeatherCatV1.21B27,2013-09-02 19:14:00,
2013-09-02 12:19:00,75.2,63.9,29.85,East,88,0.0,2.0,68,0.00,,,0.00,WeatherCatV1.21B27,2013-09-02 19:19:00,
2013-09-02 12:24:00,74.7,63.4,29.85,NE,36,4.0,7.0,68,0.00,,,0.00,WeatherCatV1.21B27,2013-09-02 19:24:00,
2013-09-02 12:29:00,74.8,63.9,29.85,ENE,77,10.0,14.0,69,0.00,,,0.00,WeatherCatV1.21B27,2013-09-02 19:29:00,
2013-09-02 12:34:00,74.9,64.0,29.85,ESE,115,6.0,9.0,69,0.00,,,0.00,WeatherCatV1.21B27,2013-09-02 19:34:00,
2013-09-02 12:39:00,74.1,63.3,29.85,ENE,63,6.0,11.0,69,0.00,,,0.00,WeatherCatV1.21B27,2013-09-02 19:39:00,
2013-09-02 12:44:00,73.9,64.3,29.85,SSE,163,3.0,9.0,72,0.00,,,0.00,WeatherCatV1.21B27,2013-09-02 19:44:00,
2013-09-02 12:49:00,75.1,64.2,29.85,NE,55,10.0,10.0,69,0.00,,,0.00,WeatherCatV1.21B27,2013-09-02 19:49:00,
2013-09-02 12:54:00,74.7,63.8,29.85,East,82,3.0,9.0,69,0.00,,,0.00,WeatherCatV1.21B27,2013-09-02 19:54:00,
2013-09-02 13:04:00,75.9,64.1,29.85,South,169,1.0,6.0,67,0.00,,,0.00,WeatherCatV1.21B27,2013-09-02 20:04:00,
2013-09-02 13:09:00,75.9,64.1,29.85,SSE,148,0.0,6.0,67,0.00,,,0.00,WeatherCatV1.21B27,2013-09-02 20:09:00,
2013-09-02 13:14:00,75.0,63.3,29.85,ESE,105,3.0,7.0,67,0.00,,,0.00,WeatherCatV1.21B27,2013-09-02 20:14:00,
2013-09-02 13:19:00,75.0,64.1,29.85,ESE,118,3.0,5.0,69,0.00,,,0.00,WeatherCatV1.21B27,2013-09-02 20:19:00,
2013-09-02 13:24:00,75.4,63.7,29.85,ESE,109,1.0,5.0,67,0.00,,,0.00,WeatherCatV1.21B27,2013-09-02 20:24:00,
2013-09-02 13:29:00,75.2,63.9,29.85,NNE,20,6.0,6.0,68,0.00,,,0.00,WeatherCatV1.21B27,2013-09-02 20:29:00,
2013-09-02 13:34:00,74.8,63.1,29.85,South,184,1.0,12.0,67,0.00,,,0.00,WeatherCatV1.21B27,2013-09-02 20:34:00,
2013-09-02 13:39:00,74.3,63.0,29.85,SSW,194,2.0,11.0,68,0.00,,,0.00,WeatherCatV1.21B27,2013-09-02 20:39:00,
2013-09-02 13:44:00,74.8,63.1,29.84,West,269,3.0,9.0,67,0.00,,,0.00,WeatherCatV1.21B27,2013-09-02 20:44:00,
2013-09-02 13:49:00,75.0,62.8,29.85,East,93,3.0,6.0,66,0.00,,,0.00,WeatherCatV1.21B27,2013-09-02 20:49:00,
2013-09-02 13:54:00,74.8,63.1,29.84,ENE,77,3.0,13.0,67,0.00,,,0.00,WeatherCatV1.21B27,2013-09-02 20:54:00,
2013-09-02 13:59:00,75.9,63.7,29.84,East,79,7.0,10.0,66,0.00,,,0.00,WeatherCatV1.21B27,2013-09-02 20:59:00,
2013-09-02 14:04:00,75.1,63.4,29.84,ESE,110,0.0,7.0,67,0.00,,,0.00,WeatherCatV1.21B27,2013-09-02 21:04:00,
2013-09-02 14:09:00,74.5,62.8,29.85,NE,39,4.0,10.0,67,0.00,,,0.00,WeatherCatV1.21B27,2013-09-02 21:09:00,
2013-09-02 14:14:00,74.5,62.8,29.84,ESE,121,5.0,11.0,67,0.00,,,0.00,WeatherCatV1.21B27,2013-09-02 21:14:00,
2013-09-02 14:19:00,74.9,63.6,29.84,ESE,110,2.0,6.0,68,0.00,,,0.00,WeatherCatV1.21B27,2013-09-02 21:19:00,
2013-09-02 14:24:00,74.8,63.1,29.84,East,101,12.0,12.0,67,0.00,,,0.00,WeatherCatV1.21B27,2013-09-02 21:24:00,
2013-09-02 14:29:00,74.2,62.9,29.84,SSE,148,3.0,10.0,68,0.00,,,0.00,WeatherCatV1.21B27,2013-09-02 21:29:00,
2013-09-02 14:34:00,74.3,63.0,29.84,East,96,5.0,11.0,68,0.00,,,0.00,WeatherCatV1.21B27,2013-09-02 21:34:00,
2013-09-02 14:39:00,74.4,63.1,29.84,NNE,26,5.0,10.0,68,0.00,,,0.00,WeatherCatV1.21B27,2013-09-02 21:39:00,
2013-09-02 14:44:00,73.9,62.7,29.83,ENE,70,5.0,11.0,68,0.00,,,0.00,WeatherCatV1.21B27,2013-09-02 21:44:00,
2013-09-02 14:49:00,74.0,63.6,29.83,SE,137,2.0,6.0,70,0.00,,,0.00,WeatherCatV1.21B27,2013-09-02 21:49:00,
2013-09-02 14:54:00,73.5,62.7,29.83,ENE,59,4.0,5.0,69,0.00,,,0.00,WeatherCatV1.21B27,2013-09-02 21:54:00,
2013-09-02 14:59:00,74.4,63.1,29.83,ENE,61,4.0,11.0,68,0.00,,,0.00,WeatherCatV1.21B27,2013-09-02 21:59:00,
2013-09-02 15:04:00,74.0,62.8,29.83,NE,43,4.0,4.0,68,0.00,,,0.00,WeatherCatV1.21B27,2013-09-02 22:04:00,
2013-09-02 15:09:00,74.3,63.0,29.83,East,101,2.0,4.0,68,0.00,,,0.00,WeatherCatV1.21B27,2013-09-02 22:09:00,
2013-09-02 15:14:00,74.0,62.8,29.83,South,169,2.0,3.0,68,0.00,,,0.00,WeatherCatV1.21B27,2013-09-02 22:14:00,
2013-09-02 15:19:00,73.2,62.4,29.83,SSE,166,1.0,10.0,69,0.00,,,0.00,WeatherCatV1.21B27,2013-09-02 22:19:00,
2013-09-02 15:24:00,72.9,62.5,29.83,East,83,7.0,9.0,70,0.00,,,0.00,WeatherCatV1.21B27,2013-09-02 22:24:00,
2013-09-02 15:29:00,72.7,62.3,29.83,East,92,3.0,11.0,70,0.00,,,0.00,WeatherCatV1.21B27,2013-09-02 22:29:00,
2013-09-02 15:34:00,72.1,62.6,29.82,East,81,3.0,3.0,72,0.00,,,0.00,WeatherCatV1.21B27,2013-09-02 22:34:00,
2013-09-02 15:39:00,73.2,63.2,29.82,NNE,24,4.0,5.0,71,0.00,,,0.00,WeatherCatV1.21B27,2013-09-02 22:39:00,
2013-09-02 15:44:00,72.7,62.7,29.82,East,92,3.0,7.0,71,0.00,,,0.00,WeatherCatV1.21B27,2013-09-02 22:44:00,
2013-09-02 15:49:00,72.5,62.9,29.82,East,101,1.0,3.0,72,0.00,,,0.00,WeatherCatV1.21B27,2013-09-02 22:49:00,
2013-09-02 15:54:00,72.3,62.8,29.82,NNE,32,6.0,7.0,72,0.00,,,0.00,WeatherCatV1.21B27,2013-09-02 22:54:00,
2013-09-02 15:59:00,72.2,63.0,29.82,ESE,109,2.0,6.0,73,0.00,,,0.00,WeatherCatV1.21B27,2013-09-02 22:59:00,
2013-09-02 16:04:00,72.8,63.2,29.82,ENE,61,6.0,6.0,72,0.00,,,0.00,WeatherCatV1.21B27,2013-09-02 23:04:00,
2013-09-02 16:09:00,72.0,62.9,29.82,SE,128,1.0,7.0,73,0.00,,,0.00,WeatherCatV1.21B27,2013-09-02 23:09:00,
2013-09-02 16:14:00,71.6,62.9,29.82,ENE,59,3.0,4.0,74,0.00,,,0.00,WeatherCatV1.21B27,2013-09-02 23:14:00,
2013-09-02 16:19:00,72.3,63.2,29.82,South,183,1.0,3.0,73,0.00,,,0.00,WeatherCatV1.21B27,2013-09-02 23:19:00,
2013-09-02 16:24:00,71.8,62.7,29.82,ESE,121,2.0,8.0,73,0.00,,,0.00,WeatherCatV1.21B27,2013-09-02 23:24:00,
2013-09-02 16:29:00,71.0,62.7,29.82,SSE,164,2.0,7.0,75,0.00,,,0.00,WeatherCatV1.21B27,2013-09-02 23:29:00,
2013-09-02 16:34:00,71.1,63.1,29.82,SE,132,1.0,3.0,76,0.00,,,0.00,WeatherCatV1.21B27,2013-09-02 23:34:00,
2013-09-02 16:39:00,71.0,62.7,29.82,South,186,1.0,4.0,75,0.00,,,0.00,WeatherCatV1.21B27,2013-09-02 23:39:00,
2013-09-02 16:44:00,71.6,63.2,29.82,SSW,211,2.0,10.0,75,0.00,,,0.00,WeatherCatV1.21B27,2013-09-02 23:44:00,
2013-09-02 16:49:00,71.3,63.0,29.82,SSE,157,0.0,7.0,75,0.00,,,0.00,WeatherCatV1.21B27,2013-09-02 23:49:00,
2013-09-02 16:54:00,71.8,63.0,29.81,SSW,202,1.0,4.0,74,0.00,,,0.00,WeatherCatV1.21B27,2013-09-02 23:54:00,
2013-09-02 16:59:00,72.3,63.5,29.81,NE,55,2.0,2.0,74,0.00,,,0.00,WeatherCatV1.21B27,2013-09-02 23:59:00,
2013-09-02 17:04:00,71.8,63.0,29.81,SE,138,0.0,5.0,74,0.00,,,0.00,WeatherCatV1.21B27,2013-09-03 00:04:00,
2013-09-02 17:09:00,71.1,63.1,29.81,NNE,23,2.0,3.0,76,0.00,,,0.00,WeatherCatV1.21B27,2013-09-03 00:09:00,
2013-09-02 17:14:00,70.8,62.5,29.81,SSW,192,2.0,5.0,75,0.00,,,0.00,WeatherCatV1.21B27,2013-09-03 00:14:00,
2013-09-02 17:19:00,70.5,62.9,29.81,ENE,77,4.0,6.0,77,0.00,,,0.00,WeatherCatV1.21B27,2013-09-03 00:19:00,
2013-09-02 17:24:00,69.6,62.4,29.81,ESE,123,3.0,6.0,78,0.00,,,0.00,WeatherCatV1.21B27,2013-09-03 00:24:00,
2013-09-02 17:29:00,68.4,61.6,29.82,WNW,299,3.0,3.0,79,0.00,,,0.00,WeatherCatV1.21B27,2013-09-03 00:29:00,
2013-09-02 17:34:00,67.8,61.0,29.82,ESE,119,2.0,5.0,79,0.00,,,0.00,WeatherCatV1.21B27,2013-09-03 00:34:00,
2013-09-02 17:39:00,67.3,60.5,29.82,South,180,3.0,5.0,79,0.00,,,0.00,WeatherCatV1.21B27,2013-09-03 00:39:00,
2013-09-02 17:44:00,67.1,59.6,29.82,WSW,253,4.0,4.0,77,0.00,,,0.00,WeatherCatV1.21B27,2013-09-03 00:44:00,
2013-09-02 17:49:00,66.7,58.9,29.82,South,171,0.0,3.0,76,0.00,,,0.00,WeatherCatV1.21B27,2013-09-03 00:49:00,
2013-09-02 17:54:00,66.5,58.3,29.82,South,182,0.0,9.0,75,0.00,,,0.00,WeatherCatV1.21B27,2013-09-03 00:54:00,
2013-09-02 17:59:00,66.2,57.7,29.82,NE,54,3.0,5.0,74,0.00,,,0.00,WeatherCatV1.21B27,2013-09-03 00:59:00,
2013-09-02 18:04:00,65.7,56.0,29.82,SE,142,1.0,6.0,71,0.00,,,0.00,WeatherCatV1.21B27,2013-09-03 01:04:00,
2013-09-02 18:09:00,65.4,55.0,29.82,East,94,2.0,4.0,69,0.00,,,0.00,WeatherCatV1.21B27,2013-09-03 01:09:00,
2013-09-02 18:14:00,65.2,54.0,29.82,SSE,148,0.0,2.0,67,0.00,,,0.00,WeatherCatV1.21B27,2013-09-03 01:14:00,
2013-09-02 18:19:00,65.3,53.2,29.82,SSE,148,1.0,6.0,65,0.00,,,0.00,WeatherCatV1.21B27,2013-09-03 01:19:00,
2013-09-02 18:24:00,65.0,52.5,29.82,South,190,1.0,6.0,64,0.00,,,0.00,WeatherCatV1.21B27,2013-09-03 01:24:00,
2013-09-02 18:29:00,64.8,50.1,29.82,SE,133,1.0,2.0,59,0.00,,,0.00,WeatherCatV1.21B27,2013-09-03 01:29:00,
2013-09-02 18:34:00,64.7,48.6,29.82,ESE,115,0.0,5.0,56,0.00,,,0.00,WeatherCatV1.21B27,2013-09-03 01:34:00,
2013-09-02 18:39:00,64.5,47.0,29.82,South,169,0.0,3.0,53,0.00,,,0.00,WeatherCatV1.21B27,2013-09-03 01:39:00,
2013-09-02 18:44:00,64.3,44.7,29.82,SSE,168,0.0,3.0,49,0.00,,,0.00,WeatherCatV1.21B27,2013-09-03 01:44:00,
2013-09-02 18:49:00,64.0,41.7,29.82,South,178,0.0,3.0,44,0.00,,,0.00,WeatherCatV1.21B27,2013-09-03 01:49:00,
2013-09-02 18:54:00,63.8,36.3,29.82,NE,54,2.0,4.0,36,0.00,,,0.00,WeatherCatV1.21B27,2013-09-03 01:54:00,
2013-09-02 18:59:00,63.6,30.8,29.82,ENE,65,2.0,3.0,29,0.00,,,0.00,WeatherCatV1.21B27,2013-09-03 01:59:00,
2013-09-02 19:04:00,63.5,28.0,29.82,SE,146,0.0,7.0,26,0.00,,,0.00,WeatherCatV1.21B27,2013-09-03 02:04:00,
2013-09-02 19:09:00,63.3,21.5,29.82,SE,129,0.0,0.0,20,0.00,,,0.00,WeatherCatV1.21B27,2013-09-03 02:09:00,
2013-09-02 19:14:00,63.2,13.2,29.82,ENE,78,3.0,4.0,14,0.00,,,0.00,WeatherCatV1.21B27,2013-09-03 02:14:00,
2013-09-02 19:19:00,62.9,-5.3,29.82,East,89,2.0,2.0,6,0.00,,,0.00,WeatherCatV1.21B27,2013-09-03 02:19:00,
2013-09-02 19:24:00,62.8,-99.9,29.82,SW,222,3.0,3.0,1,0.00,,,0.00,WeatherCatV1.21B27,2013-09-03 02:24:00,
2013-09-02 19:29:00,62.5,-99.9,29.82,ESE,109,0.0,4.0,1,0.00,,,0.00,WeatherCatV1.21B27,2013-09-03 02:29:00,
2013-09-02 19:34:00,62.2,-99.9,29.83,SE,139,3.0,3.0,1,0.00,,,0.00,WeatherCatV1.21B27,2013-09-03 02:34:00,
2013-09-02 19:39:00,62.0,-99.9,29.83,ESE,123,0.0,7.0,1,0.00,,,0.00,WeatherCatV1.21B27,2013-09-03 02:39:00,
2013-09-02 19:44:00,61.7,-99.9,29.83,SSE,153,0.0,4.0,1,0.00,,,0.00,WeatherCatV1.21B27,2013-09-03 02:44:00,
2013-09-02 19:49:00,61.5,-99.9,29.83,SSE,156,0.0,3.0,1,0.00,,,0.00,WeatherCatV1.21B27,2013-09-03 02:49:00,
2013-09-02 19:54:00,61.3,-99.9,29.83,NE,38,6.0,6.0,1,0.00,,,0.00,WeatherCatV1.21B27,2013-09-03 02:54:00,
2013-09-02 19:59:00,60.9,-99.9,29.83,ENE,63,4.0,4.0,1,0.00,,,0.00,WeatherCatV1.21B27,2013-09-03 02:59:00,
2013-09-02 20:04:00,60.7,-99.9,29.83,SSE,162,0.0,5.0,1,0.00,,,0.00,WeatherCatV1.21B27,2013-09-03 03:04:00,
2013-09-02 20:09:00,60.5,-99.9,29.83,SE,136,1.0,2.0,1,0.00,,,0.00,WeatherCatV1.21B27,2013-09-03 03:09:00,
2013-09-02 20:14:00,60.2,-99.9,29.83,SE,128,1.0,5.0,1,0.00,,,0.00,WeatherCatV1.21B27,2013-09-03 03:14:00,
2013-09-02 20:19:00,59.9,-99.9,29.83,ESE,109,1.0,3.0,1,0.00,,,0.00,WeatherCatV1.21B27,2013-09-03 03:19:00,
2013-09-02 20:24:00,59.7,-99.9,29.83,SE,136,0.0,0.0,1,0.00,,,0.00,WeatherCatV1.21B27,2013-09-03 03:24:00,
2013-09-02 20:29:00,59.6,-99.9,29.83,South,182,0.0,0.0,1,0.00,,,0.00,WeatherCatV1.21B27,2013-09-03 03:29:00,
2013-09-02 20:34:00,59.4,-99.9,29.84,South,182,0.0,2.0,1,0.00,,,0.00,WeatherCatV1.21B27,2013-09-03 03:34:00,
2013-09-02 20:39:00,59.3,-99.9,29.84,NE,51,5.0,5.0,1,0.00,,,0.00,WeatherCatV1.21B27,2013-09-03 03:39:00,
2013-09-02 20:44:00,59.1,-99.9,29.84,South,171,0.0,2.0,1,0.00,,,0.00,WeatherCatV1.21B27,2013-09-03 03:44:00,
2013-09-02 20:49:00,58.9,-99.9,29.84,SSE,154,1.0,3.0,1,0.00,,,0.00,WeatherCatV1.21B27,2013-09-03 03:49:00,
2013-09-02 20:54:00,58.6,-99.9,29.84,SW,218,2.0,2.0,1,0.00,,,0.00,WeatherCatV1.21B27,2013-09-03 03:54:00,
2013-09-02 20:59:00,58.4,-99.9,29.84,SSE,159,0.0,3.0,1,0.00,,,0.00,WeatherCatV1.21B27,2013-09-03 03:59:00,
2013-09-02 21:04:00,58.2,-99.9,29.84,NNE,31,3.0,5.0,1,0.00,,,0.00,WeatherCatV1.21B27,2013-09-03 04:04:00,
2013-09-02 21:09:00,58.2,-99.9,29.84,NE,39,4.0,4.0,1,0.00,,,0.00,WeatherCatV1.21B27,2013-09-03 04:09:00,
2013-09-02 21:14:00,58.1,-99.9,29.84,WSW,248,2.0,6.0,1,0.00,,,0.00,WeatherCatV1.21B27,2013-09-03 04:14:00,
2013-09-02 21:19:00,58.0,-99.9,29.84,SSE,155,0.0,10.0,1,0.00,,,0.00,WeatherCatV1.21B27,2013-09-03 04:19:00,
2013-09-02 21:24:00,57.9,-99.9,29.84,SE,146,0.0,4.0,1,0.00,,,0.00,WeatherCatV1.21B27,2013-09-03 04:24:00,
2013-09-02 21:29:00,57.9,-99.9,29.84,SSE,150,1.0,3.0,1,0.00,,,0.00,WeatherCatV1.21B27,2013-09-03 04:29:00,
2013-09-02 21:34:00,57.8,-99.9,29.84,ESE,123,1.0,3.0,1,0.00,,,0.00,WeatherCatV1.21B27,2013-09-03 04:34:00,
2013-09-02 21:39:00,57.6,-99.9,29.84,South,176,0.0,1.0,1,0.00,,,0.00,WeatherCatV1.21B27,2013-09-03 04:39:00,
2013-09-02 21:44:00,57.5,-99.9,29.85,East,91,1.0,3.0,1,0.00,,,0.00,WeatherCatV1.21B27,2013-09-03 04:44:00,
2013-09-02 21:49:00,57.4,-99.9,29.84,SSE,160,0.0,3.0,1,0.00,,,0.00,WeatherCatV1.21B27,2013-09-03 04:49:00,
2013-09-02 21:54:00,57.2,-99.9,29.85,ESE,113,4.0,4.0,1,0.00,,,0.00,WeatherCatV1.21B27,2013-09-03 04:54:00,
2013-09-02 21:59:00,57.1,-99.9,29.84,SE,141,0.0,4.0,1,0.00,,,0.00,WeatherCatV1.21B27,2013-09-03 04:59:00,
2013-09-02 22:04:00,57.0,-99.9,29.84,ENE,74,2.0,7.0,1,0.00,,,0.00,WeatherCatV1.21B27,2013-09-03 05:04:00,
2013-09-02 22:09:00,56.9,-99.9,29.84,ESE,121,3.0,4.0,1,0.00,,,0.00,WeatherCatV1.21B27,2013-09-03 05:09:00,
2013-09-02 22:14:00,56.8,-99.9,29.84,East,80,2.0,4.0,1,0.00,,,0.00,WeatherCatV1.21B27,2013-09-03 05:14:00,
2013-09-02 22:19:00,56.7,-99.9,29.84,West,262,3.0,6.0,1,0.00,,,0.00,WeatherCatV1.21B27,2013-09-03 05:19:00,
2013-09-02 22:24:00,56.6,-99.9,29.84,SSE,163,0.0,4.0,1,0.00,,,0.00,WeatherCatV1.21B27,2013-09-03 05:24:00,
2013-09-02 22:29:00,56.5,-99.9,29.84,South,172,0.0,4.0,1,0.00,,,0.00,WeatherCatV1.21B27,2013-09-03 05:29:00,
2013-09-02 22:34:00,56.3,-99.9,29.84,South,180,0.0,4.0,1,0.00,,,0.00,WeatherCatV1.21B27,2013-09-03 05:34:00,
2013-09-02 22:39:00,56.1,-99.9,29.84,SSW,192,2.0,4.0,1,0.00,,,0.00,WeatherCatV1.21B27,2013-09-03 05:39:00,
2013-09-02 22:44:00,56.0,-99.9,29.84,SSW,206,1.0,3.0,1,0.00,,,0.00,WeatherCatV1.21B27,2013-09-03 05:44:00,
2013-09-02 22:49:00,56.0,-99.9,29.84,SE,133,0.0,3.0,1,0.00,,,0.00,WeatherCatV1.21B27,2013-09-03 05:49:00,
2013-09-02 22:59:00,56.4,-99.9,29.84,SW,226,2.0,3.0,1,0.00,,,0.00,WeatherCatV1.21B27,2013-09-03 05:59:00,
2013-09-02 23:04:00,56.9,-99.9,29.84,NE,39,3.0,3.0,1,0.00,,,0.00,WeatherCatV1.21B27,2013-09-03 06:04:00,
2013-09-02 23:09:00,57.5,-99.9,29.83,SSW,202,2.0,4.0,1,0.00,,,0.00,WeatherCatV1.21B27,2013-09-03 06:09:00,
2013-09-02 23:14:00,58.0,3.8,29.83,SSE,167,0.0,2.0,11,0.00,,,0.00,WeatherCatV1.21B27,2013-09-03 06:14:00,
2013-09-02 23:19:00,58.4,28.7,29.83,SE,136,4.0,5.0,32,0.00,,,0.00,WeatherCatV1.21B27,2013-09-03 06:19:00,
2013-09-02 23:24:00,58.8,35.2,29.83,East,92,6.0,6.0,41,0.00,,,0.00,WeatherCatV1.21B27,2013-09-03 06:24:00,
2013-09-02 23:29:00,58.9,39.8,29.83,NE,46,11.0,12.0,49,0.00,,,0.00,WeatherCatV1.21B27,2013-09-03 06:29:00,
2013-09-02 23:34:00,59.1,43.9,29.83,ESE,118,6.0,6.0,57,0.00,,,0.00,WeatherCatV1.21B27,2013-09-03 06:34:00,
2013-09-02 23:39:00,59.0,44.7,29.83,East,100,2.0,8.0,59,0.00,,,0.00,WeatherCatV1.21B27,2013-09-03 06:39:00,
2013-09-02 23:44:00,59.1,45.7,29.83,ESE,105,2.0,4.0,61,0.00,,,0.00,WeatherCatV1.21B27,2013-09-03 06:44:00,
2013-09-02 23:49:00,59.1,46.1,29.83,ESE,118,3.0,4.0,62,0.00,,,0.00,WeatherCatV1.21B27,2013-09-03 06:49:00,
2013-09-02 23:54:00,59.2,47.0,29.83,NNE,24,4.0,4.0,64,0.00,,,0.00,WeatherCatV1.21B27,2013-09-03 06:54:00,
2013-09-02 23:59:00,59.2,47.8,29.83,ESE,108,1.0,10.0,66,0.00,,,0.00,WeatherCatV1.21B27,2013-09-03 06:59:00,